GW2822 Weather Reports


Display with metric or nautical units.
time (UTC)temp
F
wind
direction
speed
MPH
gust
MPH
rain 1hr
in
rain 24hr
in
rain mn
in
humidity
%
barometer
mb
20260506134522 73 73 1.0 4.0 0.00 0.00 0.00 95 1006.6
20260506134038 73 69 1.0 4.0 0.00 0.00 0.00 95 1006.2
20260506133547 73 58 2.0 5.0 0.00 0.00 0.00 95 1006.1
20260506133006 73 86 2.0 5.0 0.00 0.00 0.00 95 1006.1
20260506132522 73 88 1.0 4.0 0.00 0.00 0.00 95 1006.1
20260506132034 73 69 1.0 4.0 0.00 0.00 0.00 96 1006.2
20260506131546 73 68 2.0 4.0 0.00 0.00 0.00 95 1006.2
20260506131010 73 71 1.0 4.0 0.00 0.00 0.00 95 1006.2
20260506130519 73 77 1.0 4.0 0.00 0.00 0.00 95 1006.2
20260506130013 73 82 2.0 4.0 0.00 0.00 0.00 95 1006.0
20260506125526 73 86 1.0 4.0 0.00 0.00 0.00 95 1006.0
20260506125040 73 66 1.0 4.0 0.00 0.00 0.00 95 1005.9
20260506124550 72 90 1.0 7.0 0.00 0.00 0.00 95 1005.8
20260506124009 72 98 2.0 7.0 0.00 0.00 0.00 95 1005.7
20260506123522 72 88 3.0 5.0 0.00 0.00 0.00 95 1005.6
20260506123030 72 102 2.0 4.0 0.00 0.00 0.00 95 1005.7
20260506122547 72 75 2.0 4.0 0.00 0.00 0.00 95 1005.8
20260506122053 72 69 1.0 3.0 0.00 0.00 0.00 95 1005.7
20260506121510 72 133 1.0 3.0 0.00 0.00 0.00 95 1005.7
20260506121026 72 134 1.0 3.0 0.00 0.00 0.00 95 1005.8
20260506120540 72 134 1.0 3.0 0.00 0.00 0.00 95 1005.8
20260506120041 72 163 1.0 2.0 0.00 0.00 0.00 95 1005.7
20260506115552 72 163 1.0 2.0 0.00 0.00 0.00 95 1005.8
20260506115009 73 163 0.0 1.0 0.00 0.00 0.00 95 1005.7
20260506114524 73 163 0.0 1.0 0.00 0.00 0.00 95 1005.7
20260506114036 72 163 0.0 1.0 0.00 0.00 0.00 94 1005.6
20260506113550 72 163 0.0 1.0 0.00 0.00 0.00 94 1005.6
20260506113010 72 163 0.0 1.0 0.00 0.00 0.00 94 1005.7
20260506112526 73 163 0.0 2.0 0.00 0.00 0.00 94 1005.8
20260506112039 73 163 0.0 2.0 0.00 0.00 0.00 94 1005.8
20260506111552 73 163 0.0 2.0 0.00 0.00 0.00 94 1005.8
20260506111008 73 163 0.0 1.0 0.00 0.00 0.00 94 1005.8
20260506110521 73 163 0.0 1.0 0.00 0.00 0.00 94 1005.7
20260506110016 73 163 0.0 1.0 0.00 0.00 0.00 94 1005.8
20260506105531 73 163 0.0 1.0 0.00 0.00 0.00 94 1005.7
20260506105046 73 163 0.0 1.0 0.00 0.00 0.00 94 1005.6
20260506104503 73 163 0.0 2.0 0.00 0.00 0.00 94 1005.5
20260506104021 73 163 0.0 2.0 0.00 0.00 0.00 94 1005.6
20260506103529 73 163 0.0 3.0 0.00 0.00 0.00 94 1005.5
20260506103039 73 163 0.0 5.0 0.00 0.00 0.00 94 1005.5
20260506102556 73 163 2.0 6.0 0.00 0.00 0.00 94 1005.4
20260506102010 73 196 3.0 7.0 0.00 0.00 0.00 94 1005.5
20260506101526 73 185 3.0 6.0 0.00 0.00 0.00 94 1005.5
20260506101035 73 190 1.0 6.0 0.00 0.00 0.00 94 1005.5
20260506100552 73 194 2.0 8.0 0.00 0.00 0.00 94 1005.4
20260506100047 73 190 2.0 8.0 0.00 0.00 0.00 94 1005.3
20260506095557 73 184 3.0 8.0 0.00 0.00 0.00 94 1005.2
20260506095019 73 197 3.0 6.0 0.00 0.00 0.00 94 1005.2
20260506094527 73 177 3.0 6.0 0.00 0.00 0.00 94 1005.4
20260506094042 73 156 2.0 8.0 0.00 0.00 0.00 94 1005.3
20260506093557 73 181 2.0 8.0 0.00 0.00 0.00 94 1005.2
20260506093018 73 227 2.0 7.0 0.00 0.00 0.00 94 1005.1
20260506092533 73 189 3.0 8.0 0.00 0.00 0.00 93 1005.0
20260506092047 73 186 4.0 8.0 0.00 0.00 0.00 93 1005.0
20260506091557 73 157 4.0 8.0 0.00 0.00 0.00 93 1005.1
20260506091505 73 177 4.0 8.0 0.00 0.00 0.00 93 1005.0
20260506091018 73 124 4.0 10.0 0.00 0.00 0.00 93 1005.0
20260506090531 73 152 3.0 10.0 0.00 0.00 0.00 93 1004.9
20260506090025 73 149 4.0 8.0 0.00 0.00 0.00 93 1004.9
20260506085543 73 161 3.0 7.0 0.00 0.00 0.00 93 1004.9
20260506085059 73 164 3.0 8.0 0.00 0.00 0.00 93 1004.9
20260506085002 73 157 4.0 8.0 0.00 0.00 0.00 93 1004.8
20260506084519 73 152 3.0 8.0 0.00 0.00 0.00 93 1004.8
20260506084027 73 136 4.0 8.0 0.00 0.00 0.00 93 1004.9
20260506083548 73 182 2.0 6.0 0.00 0.00 0.00 92 1004.9
20260506083005 73 148 3.0 9.0 0.00 0.00 0.00 92 1004.9
20260506082520 73 138 3.0 13.0 0.00 0.00 0.00 92 1005.0
20260506082029 73 169 6.0 10.0 0.00 0.00 0.00 92 1005.0
20260506081547 74 181 6.0 10.0 0.00 0.00 0.00 92 1004.9
20260506081011 74 131 2.0 11.0 0.00 0.00 0.00 92 1004.9
20260506080517 74 160 7.0 11.0 0.00 0.00 0.00 92 1005.0
20260506073526 74 154 4.0 13.0 0.00 0.00 0.00 92 1005.3
20260506073031 74 130 7.0 13.0 0.00 0.00 0.00 92 1005.4
20260506072548 74 149 5.0 10.0 0.00 0.00 0.00 92 1005.3
20260506072056 74 158 5.0 10.0 0.00 0.00 0.00 92 1005.2
20260506072003 74 165 7.0 10.0 0.00 0.00 0.00 92 1005.3
20260506071519 74 142 4.0 11.0 0.00 0.00 0.00 92 1005.4
20260506071026 74 153 5.0 11.0 0.00 0.00 0.00 91 1005.5
20260506070542 74 148 5.0 8.0 0.00 0.00 0.00 91 1005.6
20260506062035 75 167 6.0 11.0 0.00 0.00 0.00 91 1005.5
20260506061549 75 166 5.0 11.0 0.00 0.00 0.00 91 1005.5
20260506061058 75 141 5.0 11.0 0.00 0.00 0.00 90 1005.5
20260506060513 75 161 5.0 11.0 0.00 0.00 0.00 90 1005.7
20260506051020 75 154 6.0 12.0 0.00 0.00 0.00 90 1005.7
20260506050535 75 66 3.0 10.0 0.00 0.00 0.00 90 1005.8
20260506045057 75 161 4.0 11.0 0.00 0.00 0.00 90 1005.7
20260506044515 75 154 5.0 14.0 0.00 0.00 0.00 90 1005.7
20260506044025 75 131 5.0 14.0 0.00 0.00 0.00 90 1005.7
20260506043537 75 138 4.0 10.0 0.00 0.00 0.00 90 1005.6
20260506043053 75 145 3.0 10.0 0.00 0.00 0.00 90 1005.6
20260506042507 75 175 2.0 7.0 0.00 0.00 0.00 90 1005.6
20260506042024 75 153 1.0 7.0 0.00 0.00 0.00 90 1005.6
20260506041552 75 109 2.0 5.0 0.00 0.00 0.00 90 1005.5
20260506041055 75 142 1.0 7.0 0.00 0.00 0.00 89 1005.4
20260506040517 75 118 2.0 7.0 0.00 0.00 0.00 89 1005.3
20260506040007 75 127 3.0 8.0 0.00 0.00 0.00 89 1005.3
20260506035521 75 132 4.0 8.0 0.00 0.00 0.00 89 1005.2
20260506035036 75 138 3.0 6.0 0.00 0.00 0.00 88 1005.2
20260506034551 75 128 2.0 6.0 0.00 0.00 0.00 88 1005.1
20260506034008 75 142 2.0 5.0 0.00 0.00 0.00 87 1004.9
20260506033524 76 144 1.0 5.0 0.00 0.00 0.00 87 1004.9
20260506033030 76 134 1.0 4.0 0.00 0.00 0.00 87 1005.0
20260506032546 76 133 0.0 3.0 0.00 0.00 0.00 87 1005.0
20260506032058 76 132 1.0 4.0 0.00 0.00 0.00 87 1005.0
20260506031515 76 119 1.0 5.0 0.00 0.00 0.00 87 1004.8
20260506031028 76 117 1.0 6.0 0.00 0.00 0.00 86 1004.7
20260506030545 76 141 2.0 6.0 0.00 0.00 0.00 86 1004.6
20260506030037 76 106 1.0 4.0 0.00 0.00 0.00 85 1004.5
20260506025555 76 113 0.0 4.0 0.00 0.00 0.00 85 1004.4
20260506025010 77 123 0.0 1.0 0.00 0.00 0.00 84 1004.4
20260506024523 77 125 0.0 1.0 0.00 0.00 0.00 83 1004.3
20260506024033 77 125 0.0 1.0 0.00 0.00 0.00 83 1004.3
20260506023549 77 125 0.0 1.0 0.00 0.00 0.00 83 1004.3
20260506023007 77 125 0.0 1.0 0.00 0.00 0.00 83 1004.2
20260506022519 77 125 0.0 2.0 0.00 0.00 0.00 83 1004.2
20260506022033 77 125 0.0 3.0 0.00 0.00 0.00 83 1004.1
20260506021543 78 125 0.0 4.0 0.00 0.00 0.00 83 1004.0
20260506021057 78 125 0.0 4.0 0.00 0.00 0.00 82 1003.9
20260506020514 78 134 1.0 4.0 0.00 0.00 0.00 82 1003.6
20260506020007 78 120 2.0 5.0 0.00 0.00 0.00 82 1003.6
20260506015521 78 138 1.0 5.0 0.00 0.00 0.00 81 1003.5
20260506015037 78 142 2.0 5.0 0.00 0.00 0.00 81 1003.3
20260506014547 79 157 2.0 6.0 0.00 0.00 0.00 80 1003.2
20260506014005 79 154 1.0 6.0 0.00 0.00 0.00 79 1003.3
20260506013515 79 109 0.0 4.0 0.00 0.00 0.00 79 1003.1
20260506013041 79 113 1.0 4.0 0.00 0.00 0.00 78 1003.0
20260506012543 80 130 1.0 4.0 0.00 0.00 0.00 78 1003.0
20260506012055 80 136 1.0 5.0 0.00 0.00 0.00 77 1003.0
20260506011522 80 123 2.0 5.0 0.00 0.00 0.00 77 1003.0
20260506011027 81 121 1.0 3.0 0.00 0.00 0.00 76 1003.0
20260506010541 81 132 0.0 2.0 0.00 0.00 0.00 75 1003.2
20260506010037 81 133 0.0 2.0 0.00 0.00 0.00 75 1003.1
20260506005548 81 134 0.0 4.0 0.00 0.00 0.00 75 1003.2
20260506005058 82 138 0.0 4.0 0.00 0.00 0.00 74 1003.2
20260506005008 82 138 0.0 4.0 0.00 0.00 0.00 74 1003.2
20260506004521 82 130 0.0 3.0 0.00 0.00 0.00 74 1003.1
20260506004042 82 127 0.0 3.0 0.00 0.00 0.00 74 1003.1
20260506003553 82 143 0.0 2.0 0.00 0.00 0.00 74 1003.2
20260506003008 82 142 0.0 3.0 0.00 0.00 0.00 74 1003.2
20260506002522 82 143 0.0 7.0 0.00 0.00 0.00 74 1003.1
20260506002042 82 197 0.0 7.0 0.00 0.00 0.00 73 1003.1
20260506001558 82 175 3.0 8.0 0.00 0.00 0.00 73 1003.1
20260506001011 82 198 3.0 8.0 0.00 0.00 0.00 73 1003.1
20260506000527 83 178 3.0 6.0 0.00 0.00 0.00 73 1003.0
20260506000018 83 155 4.0 7.0 0.00 0.00 0.00 73 1003.0
20260505235532 83 179 3.0 7.0 0.00 0.00 0.00 72 1002.9
20260505235046 83 194 3.0 10.0 0.00 0.00 0.00 72 1003.0
20260505234557 83 196 3.0 7.0 0.00 0.00 0.00 72 1002.9
20260505234505 83 154 3.0 7.0 0.00 0.00 0.00 72 1002.9
20260505234019 83 173 3.0 9.0 0.00 0.00 0.00 72 1002.9
20260505233536 83 184 5.0 9.0 0.00 0.00 0.00 71 1002.9
20260505233040 83 165 4.0 8.0 0.00 0.00 0.00 72 1002.9
20260505232556 83 178 4.0 11.0 0.00 0.00 0.00 71 1002.9
20260505232010 83 109 4.0 10.0 0.00 0.00 0.00 71 1002.9
20260505231528 83 200 5.0 10.0 0.00 0.00 0.00 71 1002.9
20260505231036 83 188 5.0 11.0 0.00 0.00 0.00 70 1002.9
20260505230556 84 212 6.0 11.0 0.00 0.00 0.00 70 1002.9
20260505230112 84 211 5.0 12.0 0.00 0.00 0.00 71 1002.9
20260505225508 83 177 6.0 12.0 0.00 0.00 0.00 71 1002.9
20260505225032 83 216 6.0 11.0 0.00 0.00 0.00 71 1002.8
20260505224541 83 190 6.0 11.0 0.00 0.00 0.00 70 1002.8
20260505224054 83 200 6.0 11.0 0.00 0.00 0.00 71 1002.8
20260505223508 83 215 4.0 12.0 0.00 0.00 0.00 71 1002.8
20260505223038 83 206 4.0 12.0 0.00 0.00 0.00 72 1002.7
20260505222540 83 155 5.0 14.0 0.00 0.00 0.00 71 1002.8
20260505222057 83 121 7.0 13.0 0.00 0.00 0.00 71 1002.8
20260505221511 83 165 5.0 12.0 0.00 0.00 0.00 72 1002.8
20260505221024 83 163 7.0 12.0 0.00 0.00 0.00 70 1002.8
20260505220533 84 192 5.0 13.0 0.00 0.00 0.00 70 1002.7
20260505220048 84 155 9.0 13.0 0.00 0.00 0.00 70 1002.7
20260505215540 84 198 7.0 12.0 0.00 0.00 0.00 70 1002.8
20260505215054 84 198 5.0 10.0 0.00 0.00 0.00 70 1002.8
20260505214508 84 155 8.0 15.0 0.00 0.00 0.00 71 1002.8
20260505214022 83 147 7.0 14.0 0.00 0.00 0.00 70 1002.7
20260505213533 84 131 7.0 14.0 0.00 0.00 0.00 70 1002.9
20260505213048 84 160 8.0 13.0 0.00 0.00 0.00 70 1003.0
20260505212558 84 202 9.0 13.0 0.00 0.00 0.00 69 1003.2
20260505212504 84 207 9.0 13.0 0.00 0.00 0.00 70 1003.2
20260505212014 84 167 8.0 15.0 0.00 0.00 0.00 69 1003.2
20260505211528 84 200 7.0 15.0 0.00 0.00 0.00 71 1003.4